Location: Newark
(0.5300°S, 127.4800°E)
Time: 04:46:35
(UTC+00:00)

Transit 4A - Visible Passes

Search period start: 23 September 2019 00:00
Search period end: 03 October 2019 00:00
Orbit: 865 x 979 km, 66.8° (Epoch: 22 September)

Date Brightness Start Highest point End Pass type
(mag) Time Alt. Az. Time Alt. Az. Time Alt. Az.
28 Sep 10.2 11:49:53 10° NNW 11:50:14 12° NNW 11:50:14 12° NNW visible
29 Sep 9.5 10:15:57 10° NE 10:17:10 13° NE 10:17:10 13° NE visible
29 Sep 10.0 11:59:31 10° NW 12:00:48 17° NW 12:00:48 17° NW visible
30 Sep 8.7 10:23:30 10° NNE 10:28:08 25° ENE 10:28:08 25° ENE visible
30 Sep 10.1 12:09:41 10° WNW 12:11:47 18° WNW 12:11:47 18° WNW visible
01 Oct 8.0 10:31:59 10° N 10:37:29 44° ENE 10:39:43 30° ESE visible
01 Oct 10.4 12:20:55 10° W 12:23:26 13° WSW 12:23:26 13° WSW visible
02 Oct 7.6 10:40:57 10° NNW 10:46:45 78° ENE 10:52:32 10° SSE visible
